AMC-16 1 28472U 04048A 21063.21495976 -.00000216 00000-0 00000+0 0 9993 2 28472 0.0527 317.0394 0002693 35.7395 161.7808 1.00271242 59451 ATLAS 5 CENTAUR R/B 1 28473U 04048B 21062.69011405 -.00000069 00000-0 00000+0 0 9992 2 28473 17.9215 267.3443 5738022 233.3147 59.0463 2.06079615122042